Flag for U.S.A. Weather past 2 weeks in Avalon (Santa Catalina Island), California, U.S.A.

Now
58 °F

Clear.


Feels Like: 58 °F
Forecast: 55 / 69 °F
Wind: No wind

Location: Catalina Airport


UV Index: 5 (Moderate)

Visibility: 10 mi


Pressure: 30.03 "Hg

Humidity: 65%

Dew point: 46 °F

Location of Avalon (Santa Catalina Island)Location

Historic Weather in Avalon (Santa Catalina Island)

°F

Avalon (Santa Catalina Island) temperature yesterday

Maximum temperature yesterday: 65 °F (at 1:51 PM)
Minimum temperature yesterday: 52 °F (at 3:57 AM)
Average temperature yesterday: 57 °F

Past Weeks' High & Low Weather Summary

 TemperatureHumidityPressure
High82 °F (Apr 7, 12:51 PM)100% (Apr 14, 6:51 AM)30.09 "Hg (Apr 14, 6:51 AM)
Low47 °F (Apr 5, 1:51 AM)4% (Apr 11, 2:51 AM)29.80 "Hg (Apr 16, 4:51 PM)
Average61 °F55%29.96 "Hg
* Reported Apr 4 10:51 PM — Apr 19 10:51 PM, Avalon (Santa Catalina Island), Weather by CustomWeather, © 2014

Note: Actual official high and low records may vary slightly from our data, if they occured in-between our weather recording intervals... More about our weather records

Advertising

Historic Weather Conditions — Data for Previous 24 hours

 ConditionsComfort  
Time TempWeatherWind HumidityBarometerVisibility
10:51 PM
Apr 19
53 °FFog.3 mph86%30.04 "Hg6 mi
9:51 PM58 °FClear.3 mph67%30.03 "Hg10 mi
8:51 PM59 °FClear.10 mph64%30.02 "Hg10 mi
7:51 PM59 °FSunny.9 mph69%30.01 "Hg10 mi
7:00 PM55 °FScattered clouds.10 mph83%30.03 "Hg8 mi
5:51 PM60 °FSunny.9 mph72%30.00 "Hg10 mi
4:51 PM58 °FSunny.9 mph81%30.00 "Hg9 mi
3:51 PM65 °FSunny.7 mph61%29.98 "Hg10 mi
2:51 PM63 °FSunny.8 mph68%30.00 "Hg10 mi
1:51 PM65 °FSunny.8 mph63%30.01 "Hg10 mi
12:51 PM61 °FSunny.8 mph72%30.02 "Hg10 mi
11:51 AM60 °FSunny.9 mph78%30.02 "Hg10 mi
10:51 AM60 °FSunny.8 mph78%30.02 "Hg10 mi
9:51 AM55 °FFog.7 mph93%30.01 "Hg6 mi
8:58 AM54 °FFog.6 mph97%30.01 "Hg2 mi
7:51 AM53 °FFog.7 mph96%29.98 "Hg0 mi
7:03 AM53 °FFog.5 mph93%29.99 "Hg1 mi
6:51 AM52 °FFog.7 mph97%29.97 "Hg0 mi
5:54 AM52 °FFog.5 mph93%29.97 "Hg4 mi
4:51 AM53 °FClear.6 mph86%29.94 "Hg10 mi
3:57 AM52 °FFog.5 mph93%29.95 "Hg2 mi
2:51 AM53 °FClear.No wind86%29.93 "Hg10 mi
1:51 AM54 °FPassing clouds.No wind86%29.94 "Hg10 mi
1:01 AM53 °FPassing clouds.3 mph89%29.97 "Hg10 mi
Weather by CustomWeather, © 2014

See weather overview